Weather in Vinogradnoye

Russia / Republic of North Ossetia — Alania     43°41′56″N   44°29′14″E
temp.,
°C
wind,
m/s
gust,
m/s
humid.,
%
clouds,
%
prec.,
mm/h
press.,
hPa
HPBL,
m
27 september, mon
mon2700:00+14sw486510 0.0 1016127
03:00+13w22650 0.0 101524
06:00+13wnw2361100 0.0 101651
09:00+18nw7106171 0.0 1015989
12:00+18nnw576259 0.0 10161023
15:00+18nnw575299 0.0 10161144
18:00+15wsw3557100 0.0 1017209
21:00+14wsw3666100 0.0 1017260
28 september, tue
tue2800:00+14wsw2471100 0.0 1017140
03:00+14wnw2273100 0.0 101762
06:00+14nne1172100 0.0 101711
09:00+16ne226288 0.0 1018654
12:00+17ne435461 0.0 10181089
15:00+18ne335076 0.0 10181265
18:00+15nne4659100 0.0 1020269
21:00+14nne2569100 0.0 1021336
29 september, wed
wed2900:00+13nne1173100 0.0 102290
03:00+13ne227399 0.0 1022115
06:00+12ene2474100 0.0 1022151
09:00+14ene4569100 0.0 1023576
12:00+14ene4466100 0.0 1023926
15:00+15e5557100 0.0 10221210
18:00+14ese3563100 0.0 1023268
21:00+13e5966100 0.0 1023660
30 september, thu
thu3000:00+11ene4877100 1.1 1023854
03:00+8ne5891100 6.9 1025408
06:00+8ne4591100 4.6 1026377
09:00+8nne3490100 8.0 1028261
12:00+9ene4685100 2.3 1028653
15:00+9e3586100 2.8 1028571
18:00+9e3582100 0.2 1029369
21:00+9e2491100 0.6 1030353
1 october, fri
fri100:00+9ene3491100 0.4 1030283
03:00+8ene3787100 1.3 1030572
06:00+9e4890100 0.8 1030567
09:00+9e3887100 1.0 1031689
12:00+11ene4767100 0.0 1031996
15:00+12e2665100 0.0 10301019
18:00+11se2573100 0.0 1031168
21:00+10ese4978100 0.0 1031456